This is the latest recevied weather packets stored in our database for station/object OK2ILA-10. If no packets are shown the sender has not sent any weather packets the latest 10 day(s).
| Time | Temp. | Humidity | Pressure | Rain* | Wind** | Luminosity | Snow |
|---|---|---|---|---|---|---|---|
| 1778065606 | 22.78° C | 49% | 1009.6 hPa | - | - | - | - |
| 1778065011 | 22.78° C | 49% | 1009.6 hPa | - | - | - | - |
| 1778065006 | 22.78° C | 49% | 1009.6 hPa | - | - | - | - |
| 1778064410 | 22.22° C | 48% | 1009.8 hPa | - | - | - | - |
| 1778064406 | 22.22° C | 48% | 1009.8 hPa | - | - | - | - |
| 1778063809 | 22.78° C | 48% | 1009.8 hPa | - | - | - | - |
| 1778063806 | 22.78° C | 48% | 1009.8 hPa | - | - | - | - |
| 1778063209 | 22.78° C | 49% | 1009.8 hPa | - | - | - | - |
| 1778063205 | 22.78° C | 49% | 1009.8 hPa | - | - | - | - |
| 1778062609 | 21.67° C | 51% | 1009.8 hPa | - | - | - | - |
| 1778062605 | 21.67° C | 51% | 1009.8 hPa | - | - | - | - |
| 1778062009 | 22.22° C | 51% | 1009.8 hPa | - | - | - | - |
| 1778062005 | 22.22° C | 51% | 1009.8 hPa | - | - | - | - |
| 1778061408 | 21.67° C | 52% | 1009.9 hPa | - | - | - | - |
| 1778061405 | 21.67° C | 52% | 1009.9 hPa | - | - | - | - |
| 1778060808 | 21.67° C | 52% | 1009.8 hPa | - | - | - | - |
| 1778060804 | 21.67° C | 52% | 1009.8 hPa | - | - | - | - |
| 1778060208 | 22.22° C | 53% | 1009.7 hPa | - | - | - | - |
| 1778060204 | 22.22° C | 53% | 1009.7 hPa | - | - | - | - |
| 1778059608 | 21.11° C | 56% | 1009.8 hPa | - | - | - | - |
| 1778059604 | 21.11° C | 56% | 1009.8 hPa | - | - | - | - |
| 1778059008 | 21.11° C | 56% | 1009.8 hPa | - | - | - | - |
| 1778059004 | 21.11° C | 56% | 1009.8 hPa | - | - | - | - |
| 1778058407 | 21.11° C | 56% | 1009.6 hPa | - | - | - | - |
| 1778058404 | 21.11° C | 56% | 1009.6 hPa | - | - | - | - |
* Rain since midnight (hover to see other rain measurements)
** Current wind speed in m/s (hover to see current wind gust speed)